,,Stat6,,Stat2,,Stat8,,Stat9,,Stat10,,Wind1,,Wind1
time,status,PA1M_AVG,status,PR1M_SUM,status,RH1M_AVG,status,SR1M_AVG,status,TA1M_AVG,status,W1dAve1m,status,W1sAve1m
2009-05-20, 00:00:00,VALID,917.79,VALID,0,VALID,100,VALID,-0.0339617,VALID,18.8398,VALID,206,VALID,0
2009-05-20, 00:01:00,VALID,917.776,VALID,0,VALID,100,VALID,-0.0169808,VALID,18.8106,VALID,199,VALID,0
2009-05-20, 00:02:00,VALID,917.767,VALID,0,VALID,100,VALID,0,VALID,18.8266,VALID,199,VALID,0
2009-05-20, 00:03:00,VALID,917.778,VALID,0,VALID,100,VALID,-0.0339617,VALID,18.7882,VALID,199,VALID,0
2009-05-20, 00:04:00,VALID,917.777,VALID,0,VALID,100,VALID,-0.0339617,VALID,18.6197,VALID,199,VALID,0
2009-05-20, 00:05:00,VALID,917.75,VALID,0,VALID,100,VALID,-0.0169808,VALID,18.6225,VALID,199,VALID,0
2009-05-20, 00:06:00,VALID,917.758,VALID,0,VALID,100,VALID,-0.0169808,VALID,18.7523,VALID,199,VALID,0
2009-05-20, 00:07:00,VALID,917.741,VALID,0,VALID,100,VALID,-0.0339617,VALID,18.8565,VALID,199,VALID,0
2009-05-20, 00:08:00,VALID,917.738,VALID,0,VALID,100,VALID,-0.0339617,VALID,18.8788,VALID,199,VALID,0
2009-05-20, 00:09:00,VALID,917.723,VALID,0,VALID,100,VALID,-0.0339617,VALID,18.8885,VALID,199,VALID,0
2009-05-20, 00:10:00,VALID,917.726,VALID,0,VALID,100,VALID,-0.0679233,VALID,18.9543,VALID,199,VALID,0
2009-05-20, 00:11:00,VALID,917.706,VALID,0,VALID,100,VALID,-0.0679233,VALID,18.9736,VALID,199,VALID,0
2009-05-20, 00:12:00,VALID,917.688,VALID,0,VALID,100,VALID,-0.0339617,VALID,18.9698,VALID,199,VALID,0
2009-05-20, 00:13:00,VALID,917.684,VALID,0,VALID,100,VALID,-0.0169808,VALID,19.009,VALID,199,VALID,0
2009-05-20, 00:14:00,VALID,917.685,VALID,0,VALID,100,VALID,-0.0509425,VALID,19.0417,VALID,199,VALID,0
2009-05-20, 00:15:00,VALID,917.666,VALID,0,VALID,100,VALID,-0.0339617,VALID,19.0414,VALID,199,VALID,0
2009-05-20, 00:16:00,VALID,917.666,VALID,0,VALID,100,VALID,0,VALID,18.9763,VALID,199,VALID,0
2009-05-20, 00:17:00,VALID,917.661,VALID,0,VALID,100,VALID,-0.0169808,VALID,18.9152,VALID,199,VALID,0
2009-05-20, 00:18:00,VALID,917.657,VALID,0,VALID,100,VALID,-0.0339617,VALID,18.9179,VALID,196,VALID,0
2009-05-20, 00:19:00,VALID,917.67,VALID,0,VALID,100,VALID,-0.0169808,VALID,18.9114,VALID,196,VALID,0
2009-05-20, 00:20:00,VALID,917.669,VALID,0,VALID,100,VALID,-0.0169808,VALID,18.9152,VALID,196,VALID,0
2009-05-20, 00:21:00,VALID,917.67,VALID,0,VALID,100,VALID,0,VALID,18.8853,VALID,193,VALID,0.093936
2009-05-20, 00:22:00,VALID,917.674,VALID,0,VALID,100,VALID,0,VALID,18.9207,VALID,188,VALID,0
2009-05-20, 00:23:00,VALID,917.667,VALID,0,VALID,100,VALID,-0.0339617,VALID,18.98,VALID,163,VALID,0
2009-05-20, 00:24:00,VALID,917.659,VALID,0,VALID,100,VALID,0,VALID,18.9988,VALID,155,VALID,0
2009-05-20, 00:25:00,VALID,917.646,VALID,0,VALID,100,VALID,-0.0339617,VALID,18.9863,VALID,155,VALID,0
2009-05-20, 00:26:00,VALID,917.643,VALID,0,VALID,100,VALID,0,VALID,18.9536,VALID,153,VALID,0.00121528
2009-05-20, 00:27:00,VALID,917.649,VALID,0,VALID,100,VALID,0,VALID,18.9367,VALID,153,VALID,0.0407774
2009-05-20, 00:28:00,VALID,917.662,VALID,0,VALID,100,VALID,-0.0169808,VALID,18.9733,VALID,161,VALID,0.00114329
2009-05-20, 00:29:00,VALID,917.651,VALID,0,VALID,100,VALID,-0.0169808,VALID,18.9791,VALID,168,VALID,0
2009-05-20, 00:30:00,VALID,917.666,VALID,0,VALID,100,VALID,-0.0169808,VALID,18.9728,VALID,169,VALID,0
2009-05-20, 00:31:00,VALID,917.659,VALID,0,VALID,100,VALID,-0.0169808,VALID,18.9633,VALID,169,VALID,0
2009-05-20, 00:32:00,VALID,917.631,VALID,0,VALID,100,VALID,0,VALID,18.9893,VALID,163,VALID,0.00446429
2009-05-20, 00:33:00,VALID,917.638,VALID,0,VALID,100,VALID,-0.0339617,VALID,18.993,VALID,161,VALID,0
2009-05-20, 00:34:00,VALID,917.61,VALID,0,VALID,100,VALID,-0.0339617,VALID,18.9469,VALID,158,VALID,0
2009-05-20, 00:35:00,VALID,917.594,VALID,0,VALID,100,VALID,0,VALID,18.9112,VALID,155,VALID,0.0394259
2009-05-20, 00:36:00,VALID,917.577,VALID,0,VALID,100,VALID,0,VALID,18.885,VALID,156,VALID,0.00228659
2009-05-20, 00:37:00,VALID,917.555,VALID,0,VALID,100,VALID,-0.0169808,VALID,18.8528,VALID,151,VALID,0.0361555
2009-05-20, 00:38:00,VALID,917.548,VALID,0,VALID,100,VALID,0,VALID,18.8134,VALID,149,VALID,0
2009-05-20, 00:39:00,VALID,917.526,VALID,0,VALID,100,VALID,0,VALID,18.8139,VALID,147,VALID,0
2009-05-20, 00:40:00,VALID,917.503,VALID,0,VALID,100,VALID,-0.0169808,VALID,18.8169,VALID,146,VALID,0
2009-05-20, 00:41:00,VALID,917.479,VALID,0,VALID,100,VALID,0,VALID,18.8106,VALID,144,VALID,0
2009-05-20, 00:42:00,VALID,917.444,VALID,0,VALID,100,VALID,0,VALID,18.8174,VALID,143,VALID,0
2009-05-20, 00:43:00,VALID,917.412,VALID,0,VALID,100,VALID,-0.0169808,VALID,18.7947,VALID,146,VALID,0
2009-05-20, 00:44:00,VALID,917.391,VALID,0,VALID,100,VALID,-0.0169808,VALID,18.7847,VALID,145,VALID,0
2009-05-20, 00:45:00,VALID,917.353,VALID,0,VALID,100,VALID,0,VALID,18.7717,VALID,143,VALID,0
2009-05-20, 00:46:00,VALID,917.356,VALID,0,VALID,100,VALID,-0.0169808,VALID,18.7849,VALID,145,VALID,0
2009-05-20, 00:47:00,VALID,917.333,VALID,0,VALID,100,VALID,-0.0169808,VALID,18.8042,VALID,150,VALID,0
2009-05-20, 00:48:00,VALID,917.329,VALID,0,VALID,100,VALID,-0.0169808,VALID,18.8396,VALID,153,VALID,0
2009-05-20, 00:49:00,VALID,917.323,VALID,0,VALID,100,VALID,-0.0169808,VALID,18.8623,VALID,152,VALID,0
2009-05-20, 00:50:00,VALID,917.308,VALID,0,VALID,100,VALID,0,VALID,18.9114,VALID,160,VALID,0
2009-05-20, 00:51:00,VALID,917.285,VALID,0,VALID,100,VALID,0,VALID,18.9209,VALID,149,VALID,0
2009-05-20, 00:52:00,VALID,917.28,VALID,0,VALID,100,VALID,0,VALID,18.9307,VALID,145,VALID,0
2009-05-20, 00:53:00,VALID,917.27,VALID,0,VALID,100,VALID,0,VALID,18.9369,VALID,151,VALID,0
2009-05-20, 00:54:00,VALID,917.253,VALID,0,VALID,100,VALID,0,VALID,18.9633,VALID,138,VALID,0
2009-05-20, 00:55:00,VALID,917.242,VALID,0,VALID,100,VALID,-0.0169808,VALID,18.9726,VALID,147,VALID,0
2009-05-20, 00:56:00,VALID,917.237,VALID,0,VALID,100,VALID,0,VALID,18.9888,VALID,145,VALID,0.00117188
2009-05-20, 00:57:00,VALID,917.236,VALID,0,VALID,100,VALID,0.0509425,VALID,18.9858,VALID,144,VALID,0.0430596
2009-05-20, 00:58:00,VALID,917.24,VALID,0,VALID,100,VALID,-0.0169808,VALID,18.9763,VALID,142,VALID,0
2009-05-20, 00:59:00,VALID,917.227,VALID,0,VALID,100,VALID,0.0169808,VALID,18.9402,VALID,131,VALID,0
2009-05-20, 01:00:00,VALID,917.22,VALID,0,VALID,100,VALID,0,VALID,18.8883,VALID,126,VALID,0
2009-05-20, 01:01:00,VALID,917.217,VALID,0,VALID,100,VALID,0,VALID,18.8526,VALID,124,VALID,0
2009-05-20, 01:02:00,VALID,917.211,VALID,0,VALID,100,VALID,-0.0169808,VALID,18.8266,VALID,124,VALID,0
2009-05-20, 01:03:00,VALID,917.205,VALID,0,VALID,100,VALID,0,VALID,18.8137,VALID,124,VALID,0
2009-05-20, 01:04:00,VALID,917.207,VALID,0,VALID,100,VALID,0,VALID,18.7717,VALID,134,VALID,0
2009-05-20, 01:05:00,VALID,917.174,VALID,0,VALID,100,VALID,0,VALID,18.7557,VALID,142,VALID,0
2009-05-20, 01:06:00,VALID,917.151,VALID,0,VALID,100,VALID,0,VALID,18.7293,VALID,150,VALID,0
2009-05-20, 01:07:00,VALID,917.116,VALID,0,VALID,100,VALID,0,VALID,18.7261,VALID,142,VALID,0
2009-05-20, 01:08:00,VALID,917.077,VALID,0,VALID,100,VALID,0,VALID,18.6969,VALID,141,VALID,0.0474077
2009-05-20, 01:09:00,VALID,917.054,VALID,0,VALID,100,VALID,0,VALID,18.6869,VALID,140,VALID,0
2009-05-20, 01:10:00,VALID,917.024,VALID,0,VALID,100,VALID,0,VALID,18.6644,VALID,141,VALID,0
2009-05-20, 01:11:00,VALID,916.998,VALID,0,VALID,100,VALID,0,VALID,18.6547,VALID,142,VALID,0
2009-05-20, 01:12:00,VALID,916.984,VALID,0,VALID,100,VALID,-0.0169808,VALID,18.6552,VALID,142,VALID,0
2009-05-20, 01:13:00,VALID,916.975,VALID,0,VALID,100,VALID,-0.0169808,VALID,18.6355,VALID,142,VALID,0
2009-05-20, 01:14:00,VALID,916.959,VALID,0,VALID,100,VALID,0,VALID,18.5834,VALID,142,VALID,0
2009-05-20, 01:15:00,VALID,916.953,VALID,0,VALID,100,VALID,-0.0169808,VALID,18.5546,VALID,142,VALID,0
2009-05-20, 01:16:00,VALID,916.936,VALID,0,VALID,100,VALID,0,VALID,18.5282,VALID,140,VALID,0
2009-05-20, 01:17:00,VALID,916.916,VALID,0,VALID,100,VALID,0,VALID,18.5574,VALID,140,VALID,0
2009-05-20, 01:18:00,VALID,916.901,VALID,0,VALID,100,VALID,-0.0169808,VALID,18.5866,VALID,140,VALID,0
2009-05-20, 01:19:00,VALID,916.876,VALID,0,VALID,100,VALID,0,VALID,18.5866,VALID,140,VALID,0
2009-05-20, 01:20:00,VALID,916.847,VALID,0,VALID,100,VALID,-0.0169808,VALID,18.5671,VALID,140,VALID,0
2009-05-20, 01:21:00,VALID,916.852,VALID,0,VALID,100,VALID,0.0169808,VALID,18.5706,VALID,140,VALID,0
2009-05-20, 01:22:00,VALID,916.823,VALID,0,VALID,100,VALID,0,VALID,18.5542,VALID,139,VALID,0
2009-05-20, 01:23:00,VALID,916.821,VALID,0,VALID,100,VALID,-0.0169808,VALID,18.5671,VALID,137,VALID,0
2009-05-20, 01:24:00,VALID,916.813,VALID,0,VALID,100,VALID,-0.0169808,VALID,18.5512,VALID,137,VALID,0
2009-05-20, 01:25:00,VALID,916.814,VALID,0,VALID,100,VALID,0,VALID,18.541,VALID,137,VALID,0
2009-05-20, 01:26:00,VALID,916.804,VALID,0,VALID,100,VALID,0,VALID,18.5115,VALID,137,VALID,0
2009-05-20, 01:27:00,VALID,916.799,VALID,0,VALID,100,VALID,0,VALID,18.4828,VALID,137,VALID,0
2009-05-20, 01:28:00,VALID,916.792,VALID,0,VALID,100,VALID,0,VALID,18.4596,VALID,136,VALID,0
2009-05-20, 01:29:00,VALID,916.793,VALID,0,VALID,100,VALID,-0.0339617,VALID,18.4471,VALID,135,VALID,0
2009-05-20, 01:30:00,VALID,916.797,VALID,0,VALID,100,VALID,-0.0339617,VALID,18.4274,VALID,135,VALID,0
2009-05-20, 01:31:00,VALID,916.789,VALID,0,VALID,100,VALID,0,VALID,18.4112,VALID,135,VALID,0
2009-05-20, 01:32:00,VALID,916.786,VALID,0,VALID,100,VALID,-0.0169808,VALID,18.4047,VALID,135,VALID,0
2009-05-20, 01:33:00,VALID,916.784,VALID,0,VALID,100,VALID,0.0169808,VALID,18.382,VALID,134,VALID,0
2009-05-20, 01:34:00,VALID,916.776,VALID,0,VALID,100,VALID,0,VALID,18.3691,VALID,134,VALID,0
2009-05-20, 01:35:00,VALID,916.788,VALID,0,VALID,100,VALID,0.0169808,VALID,18.3885,VALID,134,VALID,0
2009-05-20, 01:36:00,VALID,916.783,VALID,0,VALID,100,VALID,0.0169808,VALID,18.3466,VALID,135,VALID,0
2009-05-20, 01:37:00,VALID,916.776,VALID,0,VALID,100,VALID,0,VALID,18.2979,VALID,138,VALID,0
2009-05-20, 01:38:00,VALID,916.747,VALID,0,VALID,100,VALID,0.0339617,VALID,18.2915,VALID,145,VALID,0.0362043
2009-05-20, 01:39:00,VALID,916.731,VALID,0,VALID,100,VALID,0,VALID,18.2977,VALID,141,VALID,0.0307292
2009-05-20, 01:40:00,VALID,916.714,VALID,0,VALID,100,VALID,0,VALID,18.3137,VALID,140,VALID,0.00117188
2009-05-20, 01:41:00,VALID,916.697,VALID,0,VALID,100,VALID,-0.0339617,VALID,18.3468,VALID,141,VALID,0
2009-05-20, 01:42:00,VALID,916.68,VALID,0,VALID,100,VALID,0,VALID,18.3464,VALID,140,VALID,0
2009-05-20, 01:43:00,VALID,916.655,VALID,0,VALID,100,VALID,0,VALID,18.3336,VALID,145,VALID,0
2009-05-20, 01:44:00,VALID,916.648,VALID,0,VALID,100,VALID,-0.0169808,VALID,18.3369,VALID,155,VALID,0
2009-05-20, 01:45:00,VALID,916.653,VALID,0,VALID,100,VALID,-0.0169808,VALID,18.3468,VALID,150,VALID,0
2009-05-20, 01:46:00,VALID,916.642,VALID,0,VALID,100,VALID,0,VALID,18.3498,VALID,153,VALID,0
2009-05-20, 01:47:00,VALID,916.633,VALID,0,VALID,100,VALID,-0.0339617,VALID,18.3695,VALID,151,VALID,0
2009-05-20, 01:48:00,VALID,916.62,VALID,0,VALID,100,VALID,-0.0169808,VALID,18.3628,VALID,145,VALID,0
2009-05-20, 01:49:00,VALID,916.617,VALID,0,VALID,100,VALID,0,VALID,18.3336,VALID,145,VALID,0
2009-05-20, 01:50:00,VALID,916.629,VALID,0,VALID,100,VALID,0,VALID,18.3109,VALID,145,VALID,0
2009-05-20, 01:51:00,VALID,916.643,VALID,0,VALID,100,VALID,0,VALID,18.2912,VALID,145,VALID,0
2009-05-20, 01:52:00,VALID,916.651,VALID,0,VALID,100,VALID,0,VALID,18.2752,VALID,150,VALID,0
2009-05-20, 01:53:00,VALID,916.663,VALID,0,VALID,100,VALID,-0.0169808,VALID,18.2657,VALID,149,VALID,0
2009-05-20, 01:54:00,VALID,916.665,VALID,0,VALID,100,VALID,-0.0169808,VALID,18.2655,VALID,158,VALID,0
2009-05-20, 01:55:00,VALID,916.652,VALID,0,VALID,100,VALID,0,VALID,18.275,VALID,159,VALID,0
2009-05-20, 01:56:00,VALID,916.625,VALID,0,VALID,100,VALID,0,VALID,18.2653,VALID,150,VALID,0
2009-05-20, 01:57:00,VALID,916.596,VALID,0,VALID,100,VALID,0,VALID,18.2722,VALID,148,VALID,0
2009-05-20, 01:58:00,VALID,916.566,VALID,0,VALID,100,VALID,-0.0169808,VALID,18.2458,VALID,148,VALID,0
2009-05-20, 01:59:00,VALID,916.544,VALID,0,VALID,100,VALID,-0.0169808,VALID,18.2361,VALID,146,VALID,0
2009-05-20, 02:00:00,VALID,916.523,VALID,0,VALID,100,VALID,-0.0339617,VALID,18.2363,VALID,144,VALID,0
2009-05-20, 02:01:00,VALID,916.505,VALID,0,VALID,100,VALID,-0.0339617,VALID,18.2234,VALID,148,VALID,0
2009-05-20, 02:02:00,VALID,916.475,VALID,0,VALID,100,VALID,0,VALID,18.2034,VALID,147,VALID,0
2009-05-20, 02:03:00,VALID,916.456,VALID,0,VALID,100,VALID,0,VALID,18.1773,VALID,145,VALID,0
2009-05-20, 02:04:00,VALID,916.417,VALID,0,VALID,100,VALID,0,VALID,18.1615,VALID,142,VALID,0
2009-05-20, 02:05:00,VALID,916.399,VALID,0,VALID,100,VALID,0.0169808,VALID,18.1414,VALID,138,VALID,0
2009-05-20, 02:06:00,VALID,916.374,VALID,0,VALID,100,VALID,0,VALID,18.1027,VALID,133,VALID,0
2009-05-20, 02:07:00,VALID,916.366,VALID,0,VALID,100,VALID,0,VALID,18.0997,VALID,133,VALID,0
2009-05-20, 02:08:00,VALID,916.368,VALID,0,VALID,100,VALID,0,VALID,18.0707,VALID,138,VALID,0.0014881
2009-05-20, 02:09:00,VALID,916.357,VALID,0,VALID,100,VALID,-0.0169808,VALID,18.0445,VALID,140,VALID,0
2009-05-20, 02:10:00,VALID,916.356,VALID,0,VALID,100,VALID,0,VALID,17.9862,VALID,118,VALID,0
2009-05-20, 02:11:00,VALID,916.348,VALID,0,VALID,100,VALID,0,VALID,17.9211,VALID,85,VALID,0
2009-05-20, 02:12:00,VALID,916.332,VALID,0,VALID,100,VALID,0,VALID,17.869,VALID,85,VALID,0
2009-05-20, 02:13:00,VALID,916.3,VALID,0,VALID,100,VALID,0,VALID,17.947,VALID,89,VALID,0
2009-05-20, 02:14:00,VALID,916.293,VALID,0,VALID,100,VALID,0.0169808,VALID,17.9797,VALID,90,VALID,0
2009-05-20, 02:15:00,VALID,916.279,VALID,0,VALID,100,VALID,-0.0169808,VALID,17.9565,VALID,94,VALID,0
2009-05-20, 02:16:00,VALID,916.286,VALID,0,VALID,100,VALID,0,VALID,17.9507,VALID,94,VALID,0
2009-05-20, 02:17:00,VALID,916.286,VALID,0,VALID,100,VALID,0.0169808,VALID,17.9245,VALID,94,VALID,0
2009-05-20, 02:18:00,VALID,916.274,VALID,0,VALID,100,VALID,-0.0169808,VALID,17.9282,VALID,94,VALID,0
2009-05-20, 02:19:00,VALID,916.264,VALID,0,VALID,100,VALID,-0.0169808,VALID,17.9313,VALID,97,VALID,0
2009-05-20, 02:20:00,VALID,916.252,VALID,0,VALID,100,VALID,-0.0169808,VALID,17.9442,VALID,97,VALID,0
2009-05-20, 02:21:00,VALID,916.242,VALID,0,VALID,100,VALID,0.0169808,VALID,17.9604,VALID,98,VALID,0
2009-05-20, 02:22:00,VALID,916.253,VALID,0,VALID,100,VALID,0.0169808,VALID,17.8856,VALID,98,VALID,0
2009-05-20, 02:23:00,VALID,916.243,VALID,0,VALID,100,VALID,-0.0509425,VALID,17.834,VALID,98,VALID,0
2009-05-20, 02:24:00,VALID,916.244,VALID,0,VALID,100,VALID,0,VALID,17.7561,VALID,98,VALID,0
2009-05-20, 02:25:00,VALID,916.242,VALID,0,VALID,100,VALID,0,VALID,17.7168,VALID,98,VALID,0
2009-05-20, 02:26:00,VALID,916.222,VALID,0,VALID,100,VALID,0,VALID,17.7916,VALID,98,VALID,0
2009-05-20, 02:27:00,VALID,916.218,VALID,0,VALID,100,VALID,0,VALID,17.7911,VALID,98,VALID,0
2009-05-20, 02:28:00,VALID,916.208,VALID,0,VALID,100,VALID,0,VALID,17.8301,VALID,98,VALID,0
2009-05-20, 02:29:00,VALID,916.198,VALID,0,VALID,100,VALID,0.0339617,VALID,17.8819,VALID,99,VALID,0
2009-05-20, 02:30:00,VALID,916.198,VALID,0,VALID,100,VALID,0,VALID,17.9338,VALID,100,VALID,0
2009-05-20, 02:31:00,VALID,916.204,VALID,0,VALID,100,VALID,0,VALID,17.9658,VALID,100,VALID,0
2009-05-20, 02:32:00,VALID,916.214,VALID,0,VALID,100,VALID,0,VALID,17.973,VALID,101,VALID,0
2009-05-20, 02:33:00,VALID,916.217,VALID,0,VALID,100,VALID,0.0169808,VALID,17.9401,VALID,101,VALID,0
2009-05-20, 02:34:00,VALID,916.234,VALID,0,VALID,100,VALID,0.0679233,VALID,17.8718,VALID,101,VALID,0
2009-05-20, 02:35:00,VALID,916.253,VALID,0,VALID,100,VALID,0.0339617,VALID,17.8071,VALID,102,VALID,0
2009-05-20, 02:36:00,VALID,916.261,VALID,0,VALID,100,VALID,0.0169808,VALID,17.843,VALID,105,VALID,0
2009-05-20, 02:37:00,VALID,916.269,VALID,0,VALID,100,VALID,0,VALID,17.9111,VALID,107,VALID,0
2009-05-20, 02:38:00,VALID,916.278,VALID,0,VALID,100,VALID,0.0169808,VALID,17.947,VALID,108,VALID,0
2009-05-20, 02:39:00,VALID,916.273,VALID,0,VALID,100,VALID,-0.0679233,VALID,17.925,VALID,108,VALID,0
2009-05-20, 02:40:00,VALID,916.296,VALID,0,VALID,100,VALID,-0.0679233,VALID,17.8736,VALID,108,VALID,0
2009-05-20, 02:41:00,VALID,916.316,VALID,0,VALID,100,VALID,-0.101885,VALID,17.7925,VALID,108,VALID,0
2009-05-20, 02:42:00,VALID,916.303,VALID,0,VALID,100,VALID,-0.0849042,VALID,17.711,VALID,110,VALID,0
2009-05-20, 02:43:00,VALID,916.316,VALID,0,VALID,100,VALID,-0.0679233,VALID,17.6399,VALID,122,VALID,0
2009-05-20, 02:44:00,VALID,916.325,VALID,0,VALID,100,VALID,-0.0679233,VALID,17.5945,VALID,124,VALID,0
2009-05-20, 02:45:00,VALID,916.309,VALID,0,VALID,100,VALID,-0.0849042,VALID,17.5493,VALID,124,VALID,0
2009-05-20, 02:46:00,VALID,916.303,VALID,0,VALID,100,VALID,-0.101885,VALID,17.4972,VALID,124,VALID,0
2009-05-20, 02:47:00,VALID,916.283,VALID,0,VALID,100,VALID,-0.101885,VALID,17.5108,VALID,125,VALID,0
2009-05-20, 02:48:00,VALID,916.28,VALID,0,VALID,100,VALID,-0.0849042,VALID,17.5104,VALID,126,VALID,0
2009-05-20, 02:49:00,VALID,916.269,VALID,0,VALID,100,VALID,-0.118866,VALID,17.5236,VALID,127,VALID,0
2009-05-20, 02:50:00,VALID,916.268,VALID,0,VALID,100,VALID,-0.101885,VALID,17.5104,VALID,127,VALID,0
2009-05-20, 02:51:00,VALID,916.252,VALID,0,VALID,100,VALID,-0.118866,VALID,17.4814,VALID,127,VALID,0
2009-05-20, 02:52:00,VALID,916.268,VALID,0,VALID,100,VALID,-0.118866,VALID,17.5071,VALID,117,VALID,0
2009-05-20, 02:53:00,VALID,916.284,VALID,0,VALID,100,VALID,-0.101885,VALID,17.4168,VALID,104,VALID,0
2009-05-20, 02:54:00,VALID,916.29,VALID,0,VALID,100,VALID,-0.0679233,VALID,17.3348,VALID,104,VALID,0
2009-05-20, 02:55:00,VALID,916.286,VALID,0,VALID,100,VALID,-0.0849042,VALID,17.1889,VALID,104,VALID,0
2009-05-20, 02:56:00,VALID,916.294,VALID,0,VALID,100,VALID,-0.0679233,VALID,17.2214,VALID,76,VALID,0
2009-05-20, 02:57:00,VALID,916.268,VALID,0,VALID,100,VALID,-0.0679233,VALID,17.2994,VALID,69,VALID,0
2009-05-20, 02:58:00,VALID,916.242,VALID,0,VALID,100,VALID,-0.0679233,VALID,17.3416,VALID,69,VALID,0
2009-05-20, 02:59:00,VALID,916.227,VALID,0,VALID,100,VALID,-0.0849042,VALID,17.4254,VALID,70,VALID,0
2009-05-20, 03:00:00,VALID,916.199,VALID,0,VALID,100,VALID,-0.0849042,VALID,17.5233,VALID,83,VALID,0
2009-05-20, 03:01:00,VALID,916.187,VALID,0,VALID,100,VALID,-0.0339617,VALID,17.4613,VALID,87,VALID,0
2009-05-20, 03:02:00,VALID,916.158,VALID,0,VALID,100,VALID,-0.0679233,VALID,17.4712,VALID,91,VALID,0
2009-05-20, 03:03:00,VALID,916.132,VALID,0,VALID,100,VALID,-0.0679233,VALID,17.4717,VALID,120,VALID,0
2009-05-20, 03:04:00,VALID,916.126,VALID,0,VALID,100,VALID,-0.0679233,VALID,17.455,VALID,130,VALID,0
2009-05-20, 03:05:00,VALID,916.111,VALID,0,VALID,100,VALID,-0.0849042,VALID,17.4157,VALID,131,VALID,0
2009-05-20, 03:06:00,VALID,916.101,VALID,0,VALID,100,VALID,-0.0509425,VALID,17.3545,VALID,117,VALID,0
2009-05-20, 03:07:00,VALID,916.093,VALID,0,VALID,100,VALID,-0.0509425,VALID,17.3124,VALID,117,VALID,0
2009-05-20, 03:08:00,VALID,916.083,VALID,0,VALID,100,VALID,-0.0509425,VALID,17.3413,VALID,117,VALID,0
2009-05-20, 03:09:00,VALID,916.079,VALID,0,VALID,100,VALID,0.0339617,VALID,17.4211,VALID,117,VALID,0
2009-05-20, 03:10:00,VALID,916.056,VALID,0,VALID,100,VALID,0.0509425,VALID,17.4079,VALID,122,VALID,0
2009-05-20, 03:11:00,VALID,916.044,VALID,0,VALID,100,VALID,0.0679233,VALID,17.3822,VALID,126,VALID,0
2009-05-20, 03:12:00,VALID,916.013,VALID,0,VALID,100,VALID,0.0679233,VALID,17.3692,VALID,140,VALID,0.0423329
2009-05-20, 03:13:00,VALID,915.992,VALID,0,VALID,100,VALID,0.0849042,VALID,17.3368,VALID,140,VALID,0.00078125
2009-05-20, 03:14:00,VALID,915.969,VALID,0,VALID,100,VALID,0.0849042,VALID,17.3461,VALID,140,VALID,0.00053267
2009-05-20, 03:15:00,VALID,915.967,VALID,0,VALID,100,VALID,0.0849042,VALID,17.366,VALID,142,VALID,0.0137195
2009-05-20, 03:16:00,VALID,915.967,VALID,0,VALID,100,VALID,0.0509425,VALID,17.3072,VALID,147,VALID,0.0128205
2009-05-20, 03:17:00,VALID,915.963,VALID,0,VALID,100,VALID,0.0679233,VALID,17.3201,VALID,146,VALID,0.0452398
2009-05-20, 03:18:00,VALID,915.954,VALID,0,VALID,100,VALID,0.101885,VALID,17.3458,VALID,150,VALID,0.0315972
2009-05-20, 03:19:00,VALID,915.957,VALID,0,VALID,100,VALID,0.0679233,VALID,17.3206,VALID,142,VALID,0
2009-05-20, 03:20:00,VALID,915.952,VALID,0,VALID,100,VALID,0.101885,VALID,17.2881,VALID,132,VALID,0.00590701
2009-05-20, 03:21:00,VALID,915.943,VALID,0,VALID,100,VALID,0.0679233,VALID,17.2717,VALID,137,VALID,0
2009-05-20, 03:22:00,VALID,915.934,VALID,0,VALID,100,VALID,0.0849042,VALID,17.3139,VALID,135,VALID,0
2009-05-20, 03:23:00,VALID,915.936,VALID,0,VALID,100,VALID,0.0339617,VALID,17.3595,VALID,135,VALID,0
2009-05-20, 03:24:00,VALID,915.936,VALID,0,VALID,100,VALID,0,VALID,17.3833,VALID,138,VALID,0
2009-05-20, 03:25:00,VALID,915.929,VALID,0,VALID,100,VALID,-0.0849042,VALID,17.3997,VALID,145,VALID,0
2009-05-20, 03:26:00,VALID,915.912,VALID,0,VALID,100,VALID,-0.0679233,VALID,17.4064,VALID,145,VALID,0
2009-05-20, 03:27:00,VALID,915.905,VALID,0,VALID,100,VALID,0,VALID,17.3965,VALID,145,VALID,0
2009-05-20, 03:28:00,VALID,915.901,VALID,0,VALID,100,VALID,-0.0509425,VALID,17.3932,VALID,133,VALID,0
2009-05-20, 03:29:00,VALID,915.9,VALID,0,VALID,100,VALID,-0.0169808,VALID,17.3738,VALID,134,VALID,0
2009-05-20, 03:30:00,VALID,915.906,VALID,0,VALID,100,VALID,-0.0679233,VALID,17.3346,VALID,150,VALID,0
2009-05-20, 03:31:00,VALID,915.917,VALID,0,VALID,100,VALID,-0.0849042,VALID,17.3253,VALID,147,VALID,0.00208333
2009-05-20, 03:32:00,VALID,915.924,VALID,0,VALID,100,VALID,-0.0339617,VALID,17.3416,VALID,144,VALID,0
2009-05-20, 03:33:00,VALID,915.93,VALID,0,VALID,100,VALID,-0.0509425,VALID,17.3768,VALID,139,VALID,0
2009-05-20, 03:34:00,VALID,915.934,VALID,0,VALID,100,VALID,-0.0849042,VALID,17.3738,VALID,138,VALID,0
2009-05-20, 03:35:00,VALID,915.938,VALID,0,VALID,100,VALID,-0.0339617,VALID,17.4287,VALID,139,VALID,0
2009-05-20, 03:36:00,VALID,915.934,VALID,0,VALID,100,VALID,-0.0339617,VALID,17.4451,VALID,139,VALID,0
2009-05-20, 03:37:00,VALID,915.924,VALID,0,VALID,100,VALID,-0.0509425,VALID,17.4191,VALID,139,VALID,0
2009-05-20, 03:38:00,VALID,915.926,VALID,0,VALID,100,VALID,-0.0339617,VALID,17.4062,VALID,139,VALID,0
2009-05-20, 03:39:00,VALID,915.918,VALID,0,VALID,100,VALID,0.0169808,VALID,17.3984,VALID,139,VALID,0
2009-05-20, 03:40:00,VALID,915.899,VALID,0,VALID,100,VALID,0.0169808,VALID,17.4083,VALID,139,VALID,0
2009-05-20, 03:41:00,VALID,915.88,VALID,0,VALID,100,VALID,0.0339617,VALID,17.4016,VALID,137,VALID,0
2009-05-20, 03:42:00,VALID,915.872,VALID,0,VALID,100,VALID,0.0679233,VALID,17.4074,VALID,136,VALID,0
2009-05-20, 03:43:00,VALID,915.868,VALID,0,VALID,100,VALID,0.0169808,VALID,17.4018,VALID,142,VALID,0
2009-05-20, 03:44:00,VALID,915.879,VALID,0,VALID,100,VALID,0.0169808,VALID,17.3984,VALID,138,VALID,0
2009-05-20, 03:45:00,VALID,915.883,VALID,0,VALID,100,VALID,0,VALID,17.4079,VALID,139,VALID,0
2009-05-20, 03:46:00,VALID,915.896,VALID,0,VALID,100,VALID,0,VALID,17.3915,VALID,150,VALID,0.00118886
2009-05-20, 03:47:00,VALID,915.9,VALID,0,VALID,100,VALID,0.0169808,VALID,17.4537,VALID,144,VALID,0
2009-05-20, 03:48:00,VALID,915.92,VALID,0,VALID,100,VALID,0.0169808,VALID,17.4662,VALID,142,VALID,0.00832201
2009-05-20, 03:49:00,VALID,915.936,VALID,0,VALID,100,VALID,0.0169808,VALID,17.4466,VALID,139,VALID,0
2009-05-20, 03:50:01,VALID,915.937,VALID,0,VALID,100,VALID,0.0339617,VALID,17.4243,VALID,136,VALID,0
2009-05-20, 03:51:00,VALID,915.94,VALID,0,VALID,100,VALID,0,VALID,17.3984,VALID,133,VALID,0.0012718
2009-05-20, 03:52:00,VALID,915.946,VALID,0,VALID,100,VALID,0,VALID,17.3791,VALID,133,VALID,0.0295351
2009-05-20, 03:53:00,VALID,915.953,VALID,0,VALID,100,VALID,0.0169808,VALID,17.3595,VALID,133,VALID,0
2009-05-20, 03:54:01,VALID,915.967,VALID,0,VALID,100,VALID,-0.0339617,VALID,17.3575,VALID,134,VALID,0
2009-05-20, 03:55:00,VALID,915.954,VALID,0,VALID,100,VALID,-0.0509425,VALID,17.3541,VALID,142,VALID,0.00101902
2009-05-20, 03:56:01,VALID,915.944,VALID,0,VALID,100,VALID,-0.0849042,VALID,17.3707,VALID,142,VALID,0.051398